Weather History for KUDG - March, 2013

Change the Weather History Date:

Monday, March 18, 2013

  Actual Average (KFLO) Record (KFLO)
Temperature  
Mean Temperature 52 °F 56 °F  
Max Temperature 55 °F 68 °F 88 °F (1963)
Min Temperature 48 °F 44 °F 25 °F (1967)
Degree Days  
Heating Degree Days 14 9  
Month to date heating degree days 207  
Since 1 July heating degree days 2273  
Cooling Degree Days 0 1  
Month to date cooling degree days 5  
Year to date cooling degree days 11  
Growing Degree Days 2 (Base 50)    
Moisture  
Dew Point 40 °F    
Average Humidity 67    
Maximum Humidity 71    
Minimum Humidity 62    
Precipitation  
Precipitation 0.00 in 0.10 in 1.66 in (1969)
Month to date precipitation 1.99  
Year to date precipitation 8.14  
Sea Level Pressure  
Sea Level Pressure 30.11 in    
Wind  
Wind Speed 10 mph (NE)    
Max Wind Speed 14 mph    
Max Gust Speed -    
Visibility 9 miles    
Events      
T = Trace of Precipitation, MM = Missing Value Source: NWS Daily Summary

Daily Weather History Graph

Daily Weather History Graph

Search for Another Location

Airport or City:

Trip Planner

Search our weather history database for the weather conditions in past years. The results will help you decide how hot, cold, wet, or windy it might be!

Date:

Astronomy

Mar. 18, 2013 Rise Set
Actual Time 7:25 AM EDT 7:29 PM EDT
Civil Twilight 7:00 AM EDT 7:54 PM EDT
Nautical Twilight 6:31 AM EDT 8:24 PM EDT
Astronomical Twilight 6:01 AM EDT 8:53 PM EDT
Moon 11:38 AM EDT (3/18) 1:13 AM EDT (3/18)
Length of Visible Light 12h 54m
Length of Day
12h 04m
Waxing Crescent, 40% of the Moon is Illuminated
Mar 18
Waxing Crescent
Mar 19
First Quarter
Mar 27
Full
Apr 3
Last Quarter
Apr 10
New

Hourly Weather History & Observations

Time (EDT) Temp. Dew Point Humidity Pressure Visibility Wind Dir Wind Speed Gust Speed Precip Events Conditions
12:15 AM 55.4 °F 42.8 °F 63% 30.09 in 10.0 mi NNE 10.4 mph - N/A   Overcast
12:35 AM 55.4 °F 42.8 °F 63% 30.09 in 10.0 mi NNE 8.1 mph - N/A   Overcast
12:55 AM 55.4 °F 42.8 °F 63% 30.08 in 10.0 mi NE 8.1 mph - N/A   Overcast
1:15 AM 55.4 °F 42.8 °F 63% 30.08 in 10.0 mi NE 6.9 mph - N/A   Overcast
1:35 AM 55.4 °F 44.6 °F 67% 30.08 in 10.0 mi ENE 11.5 mph - N/A   Overcast
1:55 AM 55.4 °F 44.6 °F 67% 30.08 in 10.0 mi ENE 11.5 mph - N/A   Overcast
2:15 AM 55.4 °F 44.6 °F 67% 30.08 in 10.0 mi ENE 13.8 mph - N/A   Overcast
2:35 AM 53.6 °F 42.8 °F 67% 30.08 in 10.0 mi NE 12.7 mph - N/A   Overcast
2:55 AM 53.6 °F 41.0 °F 62% 30.08 in 10.0 mi NE 11.5 mph - N/A   Overcast
3:15 AM 51.8 °F 41.0 °F 67% 30.09 in 10.0 mi NE 13.8 mph - N/A   Overcast
3:35 AM 51.8 °F 39.2 °F 62% 30.09 in 10.0 mi NE 12.7 mph - N/A   Overcast
3:55 AM 51.8 °F 39.2 °F 62% 30.09 in 10.0 mi ENE 9.2 mph - N/A   Overcast
4:15 AM 50.0 °F 39.2 °F 66% 30.08 in 10.0 mi NE 10.4 mph - N/A   Overcast
4:35 AM 50.0 °F 39.2 °F 66% 30.09 in 10.0 mi NE 9.2 mph - N/A   Overcast
4:55 AM 48.2 °F 39.2 °F 71% 30.09 in 10.0 mi NE 12.7 mph - N/A   Overcast
5:15 AM 48.2 °F 39.2 °F 71% 30.09 in 10.0 mi NE 10.4 mph - N/A   Overcast
5:35 AM 48.2 °F 39.2 °F 71% 30.09 in 10.0 mi NE 9.2 mph - N/A   Overcast
5:55 AM 48.2 °F 39.2 °F 71% 30.12 in 9.0 mi NE 9.2 mph - N/A   Overcast
6:15 AM 48.2 °F 39.2 °F 71% 30.12 in 10.0 mi NE 9.2 mph - N/A   Overcast
6:35 AM 48.2 °F 37.4 °F 66% 30.13 in 10.0 mi NE 9.2 mph - N/A   Overcast
6:55 AM 48.2 °F 37.4 °F 66% 30.13 in 10.0 mi NNE 8.1 mph - N/A   Overcast
7:15 AM 48.2 °F 37.4 °F 66% 30.13 in 10.0 mi NNE 9.2 mph - N/A   Overcast
7:35 AM 48.2 °F 37.4 °F 66% 30.14 in 8.0 mi NNE 8.1 mph - N/A   Overcast
7:55 AM 48.2 °F 37.4 °F 66% 30.14 in 7.0 mi NE 10.4 mph - N/A   Overcast
8:15 AM 48.2 °F 39.2 °F 71% 30.14 in 5.0 mi ENE 10.4 mph - N/A   Overcast
8:35 AM 48.2 °F 39.2 °F 71% 30.14 in 5.0 mi NE 10.4 mph - N/A   Overcast
8:55 AM 48.2 °F 39.2 °F 71% 30.14 in 5.0 mi NE 9.2 mph - N/A   Overcast
9:15 AM 48.2 °F 39.2 °F 71% 30.14 in 5.0 mi NNE 9.2 mph - N/A   Overcast
9:35 AM 48.2 °F 39.2 °F 71% 30.13 in 5.0 mi NE 10.4 mph - N/A   Overcast
9:55 AM 48.2 °F 39.2 °F 71% 30.13 in 6.0 mi NE 11.5 mph - N/A   Overcast
10:15 AM 50.0 °F 39.2 °F 66% 30.12 in 7.0 mi ENE 11.5 mph - N/A   Overcast
10:35 AM 50.0 °F 39.2 °F 66% 30.11 in 8.0 mi ENE 10.4 mph - N/A   Overcast
10:55 AM 50.0 °F 39.2 °F 66% 30.12 in 8.0 mi ENE 6.9 mph - N/A   Overcast
11:15 AM 50.0 °F 39.2 °F 66% 30.13 in 9.0 mi NE 8.1 mph - N/A   Overcast
11:35 AM 50.0 °F 41.0 °F 71% 30.12 in 9.0 mi NE 8.1 mph - N/A   Overcast
11:55 AM 51.8 °F 41.0 °F 67% 30.12 in 10.0 mi NE 6.9 mph - N/A   Overcast
12:15 PM 51.8 °F 41.0 °F 67% 30.11 in 10.0 mi NE 5.8 mph - N/A   Overcast
12:35 PM 51.8 °F 41.0 °F 67% 30.11 in 10.0 mi NNE 6.9 mph - N/A   Overcast
12:55 PM 51.8 °F 41.0 °F 67% 30.11 in 9.0 mi North 9.2 mph - N/A   Overcast
1:55 PM 51.8 °F 42.8 °F 71% 30.07 in 8.0 mi NE 9.2 mph - N/A   Mostly Cloudy